User: anonymous   Login
Location: Unspecified
(0.0000°N, 0.0000°E)
Time: 08:40:30
(UTC+00:00)
Language:

Sirio 1 - Orbit

View from above orbital plane
View from above orbital plane
View from above satellite
View from above satellite

Ground track
Ground track

The orbit data is extracted from the following two-line orbital elements,

1 10294U 77080A   18019.86294819 -.00000102 +00000-0 +00000-0 0  9998
2 10294 013.3539 329.7998 0005492 042.0837 133.7734 01.00271556087137
Epoch (UTC): 19 January 2018 20:42:38
Eccentricity: 0.0005492
inclination: 13.3539°
perigee height: 35763 km
apogee height: 35809 km
right ascension of ascending node: 329.7998°
argument of perigee: 42.0837°
revolutions per day: 1.00271556
mean anomaly at epoch: 133.7734°
orbit number at epoch: 8713

The dashed part of the orbit path shows where the satellite is in the earth's shadow,  

DLR